Find Starlink 37106

NORAD ID: 68219 Int'l Des: 2026-053 Owner: SPXS Country: US Constellation: starlink operational
LEOCIRCULARRETROGRADE

当前视图

正在加载3D地球...

About Starlink 37106

Starlink 37106 (NORAD 68219) is a starlink constellation satellite (v2 mini) launched Mar 17, 2026 by SPXS of US. It operates in LEO, CIRCULAR, RETROGRADE orbit with a mass of 575.00 kg.

关于 Starlink 37106

正在加载描述...

即将过境

Passes for default location (London). Set your location on the main map for personalized predictions.

高度历史

Loading altitude history...

两行轨道根数

1 68219U 26053N 26167.18620258 .00013769 00000-0 42803-3 0 9992
2 68219 97.2851 42.3347 0001628 72.8596 287.2825 15.33446921 15319
Epoch: Jun 16, 2026 • Age: 12 hours

当前状态

高度 491.3 km
速度 7.62 km/s
星下点 -64.62°S, 54.85°E
发射日期 Mar 17, 2026
运行时间 0.2 years
类型 internet

技术详情

分类 Payload
质量 575.00 kg
干质量 530.00 kg
总质量 575.00 kg
长度 0.30 m
直径 4.10 m
跨度 29.00 m
形状 Box + pan
制造商 SPXS
平台类型 Starlink V2MO
阶段状态 In Orbit
所有者/国家 SPXS/US

Most Searched